Regional Weather Roundup
Issued by NWS

Home | Current Version | Previous Version | Text Only | Print | Product List | Glossary Off
Versions: 1 2 3 4 5 6 7 8 9 10 11 12 13 14 15 16 17 18 19 20 21 22 23 24 25 26 27 28 29 30 31 32 33 34 35 36 37 38 39 40 41 42 43 44 45 46 47 48 49 50

249
ASUS43 KIND 290109
RWRIN

WEATHER ROUNDUP FOR INDIANA
NATIONAL WEATHER SERVICE INDIANAPOLIS IN
900 PM EDT WED JUN 28 2017

NOTE: "FAIR" INDICATES FEW OR NO CLOUDS BELOW 12,000 FEET WITH NO
SIGNIFICANT WEATHER AND/OR OBSTRUCTIONS TO VISIBILITY.

* - STATION DOES NOT REPORT WEATHER SUCH AS PRECIPITATION OR FOG.

+ - STATION NOT QUALITY CONTROLLED BY THE NATIONAL WEATHER SERVICE.
    USE DATA WITH CAUTION...ESPECIALLY DEWPOINT AND RELATIVE
    HUMIDITY OBSERVATIONS.

INZ001>003-010>013-019-020-290200-
NORTHWEST INDIANA

CITY           SKY/WX    TMP DP  RH WIND       PRES   REMARKS
GARY /AIRPORT/ MOCLDY    81  57  44 S14G28    29.80S
KNOX *+        PTCLDY    77  45  31 S15G24    29.86R
LA PORTE +     MOCLDY    76  58  52 S13G23    29.85R
MICHIGAN CITY+ CLOUDY    77  55  47 S14G24    29.82S
MONTICELLO +   CLEAR     77  56  49 S8G14     29.89S
RENSSELAER +   PTCLDY    77  54  44 S17       29.88R
VALPARAISO     MOCLDY    78  58  49 S18G25    29.85R

$$

LMZ046-743>745-290200-
SOUTHERN LAKE MICHIGAN

STATION/POSITION TIME  TEMP    WIND        PRES    WAVE
                       AIR SEA DIR/SP/G            HT
                 (UTC) (F)     (DEG/KT/KT) (MB)    (FT)
BURNS HARBOR     0040   78     190/ 19/ 24 1009.5R
MICHIGAN CITY    0040   78     170/ 19/ 24   N/A
5NW MICH CITY    0050   75 65  190/ 17/ 25   N/A     3

$$

INZ004-005-014>016-021>024-290200-
NORTH CENTRAL INDIANA

CITY           SKY/WX    TMP DP  RH WIND       PRES   REMARKS
ELKHART        CLOUDY    75  54  46 S13G21    29.85F
GOSHEN         PTCLDY    75  53  46 S15       29.87F
LOGANSPORT +   CLEAR     73  55  53 S12G18    29.92R
PERU/GRISSOM   CLOUDY    75  57  54 S13       29.91F
ROCHESTER +    PTCLDY    77  55  47 S10       29.90F
SOUTH BEND     PTCLDY    75  57  53 S16G28    29.85S
WARSAW +       CLOUDY    73  54  49 S6        29.89F

$$

INZ006>009-017-018-025>027-290200-
NORTHEAST INDIANA

CITY           SKY/WX    TMP DP  RH WIND       PRES   REMARKS
ANGOLA *+      PTCLDY    73  68  83 S9        29.91F
AUBURN +       MOCLDY    73  50  43 S3        29.93F
FORT WAYNE     CLOUDY    74  53  48 S10       29.94F
HUNTINGTON +   PTCLDY    74  51  44 S8        29.93F
KENDALLVILLE + CLOUDY    74  53  47 S12       29.91F

$$

INZ028-029-035-036-043>045-051>053-290200-
WEST CENTRAL INDIANA

CITY           SKY/WX    TMP DP  RH WIND       PRES   REMARKS
CRAWFORDSVL +  CLEAR     73  59  60 S9        29.93S
GREENCASTLE +  CLEAR     72  59  64 S10       29.94F
LAFAYETTE      CLEAR     76  59  55 S7        29.90S
TERRE HAUTE    PTCLDY    78  58  49 S15G22    29.92F

$$

INZ030>032-037>040-046>048-054>057-064-065-290200-
CENTRAL INDIANA

CITY           SKY/WX    TMP DP  RH WIND       PRES   REMARKS
CP ATTERBURY + CLEAR     72  55  56 S5        29.98F
COLUMBUS       MOCLDY    75  50  41 S10       29.98F
FRANKFORT +    CLOUDY    77  58  52 S7        29.95S
GREENWOOD *+   CLEAR     76  54  46 S12       29.97F
INDIANAPOLIS   MOCLDY    75  57  53 S14       29.94F
-EAGLE CREEK   CLEAR     76  56  49 S7        29.94F
KOKOMO +       CLOUDY    76  56  49 S14       29.93F
MARION +       CLOUDY    73  52  46 S13       29.95F
MT COMFORT *+  CLOUDY    77  54  44 S12       29.97F
SHELBYVILLE    CLOUDY    76  54  46 S12       29.97F
ZIONSVILLE +   CLEAR     75  55  51 S10       29.95F

$$

INZ033-034-041-042-049-050-058-059-290200-
EAST CENTRAL INDIANA

CITY           SKY/WX    TMP DP  RH WIND       PRES   REMARKS
MUNCIE         PTCLDY    76  51  41 S10       29.96F
RICHMOND +     CLEAR     70  54  56 S9        30.02F

$$

INZ060-061-067>069-081>083-085>088-290200-
SOUTHWEST INDIANA

CITY           SKY/WX    TMP DP  RH WIND       PRES   REMARKS
EVANSVILLE     CLOUDY    79  60  52 S8        29.96F
HUNTINGBURG *+ PTCLDY    77  61  57 SE8       29.98F
WASHINGTON +   CLOUDY    77  58  52 S8        29.94F

$$

INZ062-063-066-070>080-084-089>092-290200-
SOUTH CENTRAL AND SOUTHEAST INDIANA

CITY           SKY/WX    TMP DP  RH WIND       PRES   REMARKS
BEDFORD +      CLOUDY    75  55  50 SE6       29.97
BLOOMINGTON    CLEAR     75  57  53 S8        29.96F
MADISON *+     PTCLDY    75  52  43 S6        30.03F
NORTH VERNON + PTCLDY    73  55  53 S7        30.00F
SEYMOUR +      CLOUDY    77  55  47 S7        29.98F

$$





USA.gov is the U.S. government's official web portal to all federal, state and local government web resources and services.